Change the Weather History Date:

Tuesday, October 30, 2012

  Actual Average Record
Temperature  
Mean Temperature 57 °F -  
Max Temperature 77 °F 67 °F 87 °F (1950)
Min Temperature 37 °F 37 °F 15 °F (1993)
Degree Days  
Heating Degree Days 8    
Growing Degree Days 7 (Base 50)    
Moisture  
Dew Point 28 °F    
Average Humidity 36    
Maximum Humidity 65    
Minimum Humidity 17    
Precipitation  
Precipitation 0.00 in - - ()
Sea Level Pressure  
Sea Level Pressure 30.11 in    
Wind  
Wind Speed 5 mph (NNE)    
Max Wind Speed 14 mph    
Max Gust Speed -    
Visibility 10 miles    
Events      
Averages and records for this station are not official NWS values.
T = Trace of Precipitation, MM = Missing Value Source: NWS Daily Summary

Daily Weather History Graph

Daily Weather History Graph

Search for Another Location

Airport or City:

Trip Planner

Search our weather history database for the weather conditions in past years. The results will help you decide how hot, cold, wet, or windy it might be!

Date:

Astronomy

Oct. 30, 2012 Rise Set
Actual Time 7:11 AM MDT 6:00 PM MDT
Civil Twilight 6:45 AM MDT 6:26 PM MDT
Nautical Twilight 6:15 AM MDT 6:55 PM MDT
Astronomical Twilight 5:46 AM MDT 7:25 PM MDT
Moon 6:35 PM MDT (10/30) 7:56 AM MDT (10/30)
Length of Visible Light 11h 41m
Length of Day
10h 49m
Full, 99% of the Moon is Illuminated
Oct 30
Full
Nov 6
Last Quarter
Nov 13
New
Nov 20
First Quarter
Nov 28
Full

Hourly Weather History & Observations

Time (MDT) Temp. Windchill Dew Point Humidity Pressure Visibility Wind Dir Wind Speed Gust Speed Precip Events Conditions
12:15 AM 42.8 °F 41.1 °F 28.4 °F 57% 30.11 in 10.0 mi SE 3.5 mph - N/A   Clear
12:35 AM 42.8 °F - 28.4 °F 57% 30.11 in 10.0 mi Calm Calm - N/A   Clear
12:55 AM 42.8 °F - 28.4 °F 57% 30.11 in 10.0 mi Calm Calm - N/A   Clear
1:55 AM 42.8 °F - 28.4 °F 57% 30.10 in 10.0 mi Calm Calm - N/A   Clear
2:15 AM 41.0 °F - 26.6 °F 57% 30.10 in 10.0 mi Calm Calm - N/A   Clear
2:55 AM 37.4 °F 33.8 °F 24.8 °F 60% 30.09 in 10.0 mi NNE 4.6 mph - N/A   Clear
3:15 AM 39.2 °F 35.9 °F 26.6 °F 61% 30.08 in 10.0 mi NNW 4.6 mph - N/A   Clear
3:35 AM 39.2 °F 34.2 °F 28.4 °F 65% 30.08 in 10.0 mi NNW 6.9 mph - N/A   Clear
3:55 AM 37.4 °F 30.8 °F 26.6 °F 65% 30.09 in 9.0 mi North 9.2 mph - N/A   Clear
4:15 AM 37.4 °F 31.4 °F 26.6 °F 65% 30.08 in 10.0 mi North 8.1 mph - N/A   Clear
4:35 AM 39.2 °F 35.0 °F 28.4 °F 65% 30.08 in 10.0 mi NW 5.8 mph - N/A   Clear
4:55 AM 37.4 °F 32.1 °F 26.6 °F 65% 30.08 in 10.0 mi NW 6.9 mph - N/A   Clear
5:15 AM 39.2 °F 33.6 °F 26.6 °F 61% 30.08 in 10.0 mi NNW 8.1 mph - N/A   Clear
5:35 AM 39.2 °F 32.0 °F 26.6 °F 61% 30.08 in 10.0 mi NNW 11.5 mph - N/A   Clear
6:15 AM 42.8 °F 38.0 °F 26.6 °F 53% 30.09 in 10.0 mi NNW 8.1 mph - N/A   Clear
6:35 AM 42.8 °F 36.2 °F 26.6 °F 53% 30.09 in 10.0 mi NNW 12.7 mph - N/A   Clear
6:55 AM 42.8 °F 36.6 °F 26.6 °F 53% 30.09 in 10.0 mi NNW 11.5 mph - N/A   Clear
7:35 AM 44.6 °F 39.2 °F 28.4 °F 53% 30.11 in 10.0 mi NNW 10.4 mph - N/A   Clear
7:55 AM 48.2 °F - 28.4 °F 46% 30.11 in 10.0 mi NNW 11.5 mph - N/A   Clear
8:15 AM 51.8 °F - 28.4 °F 41% 30.12 in 10.0 mi NNW 10.4 mph - N/A   Clear
8:35 AM 53.6 °F - 30.2 °F 41% 30.13 in 10.0 mi NNW 12.7 mph - N/A   Clear
8:55 AM 57.2 °F - 30.2 °F 36% 30.13 in 10.0 mi North 13.8 mph - N/A   Clear
9:15 AM 59.0 °F - 32.0 °F 36% 30.14 in 10.0 mi North 13.8 mph - N/A   Clear
9:35 AM 60.8 °F - 33.8 °F 36% 30.14 in 10.0 mi North 12.7 mph - N/A   Clear
9:55 AM 62.6 °F - 33.8 °F 34% 30.14 in 10.0 mi NNW 12.7 mph - N/A   Clear
10:15 AM 64.4 °F - 33.8 °F 32% 30.15 in 10.0 mi North 10.4 mph - N/A   Clear
10:35 AM 68.0 °F - 33.8 °F 28% 30.15 in 10.0 mi NE 8.1 mph - N/A   Clear
10:55 AM 69.8 °F - 33.8 °F 27% 30.15 in 10.0 mi NNE 8.1 mph - N/A   Clear
11:15 AM 71.6 °F - 32.0 °F 23% 30.15 in 10.0 mi NE 8.1 mph - N/A   Clear
11:35 AM 71.6 °F - 30.2 °F 22% 30.15 in 10.0 mi ENE 5.8 mph - N/A   Clear
11:55 AM 73.4 °F - 30.2 °F 20% 30.14 in 10.0 mi NE 8.1 mph - N/A   Clear
12:15 PM 73.4 °F - 30.2 °F 20% 30.14 in 10.0 mi ENE 6.9 mph - N/A   Clear
12:35 PM 73.4 °F - 28.4 °F 19% 30.13 in 10.0 mi Calm Calm - N/A   Clear
12:55 PM 73.4 °F - 28.4 °F 19% 30.12 in 10.0 mi NNE 5.8 mph - N/A   Clear
1:15 PM 75.2 °F - 28.4 °F 18% 30.11 in 10.0 mi Calm Calm - N/A   Clear
1:35 PM 75.2 °F - 28.4 °F 18% 30.11 in 10.0 mi East 6.9 mph - N/A   Clear
1:55 PM 75.2 °F - 28.4 °F 18% 30.10 in 10.0 mi ENE 3.5 mph - N/A   Clear
2:15 PM 77.0 °F - 28.4 °F 17% 30.09 in 10.0 mi ESE 8.1 mph - N/A   Clear
2:35 PM 77.0 °F - 28.4 °F 17% 30.09 in 10.0 mi East 5.8 mph - N/A   Clear
2:55 PM 77.0 °F - 28.4 °F 17% 30.08 in 10.0 mi East 5.8 mph - N/A   Clear
3:15 PM 75.2 °F - 26.6 °F 17% 30.08 in 10.0 mi East 3.5 mph - N/A   Clear
3:35 PM 77.0 °F - 28.4 °F 17% 30.08 in 10.0 mi Calm Calm - N/A   Clear
3:55 PM 77.0 °F - 28.4 °F 17% 30.08 in 10.0 mi Calm Calm - N/A   Clear
4:15 PM 75.2 °F - 26.6 °F 17% 30.08 in 10.0 mi ENE 4.6 mph - N/A   Clear
4:35 PM 75.2 °F - 26.6 °F 17% 30.08 in 10.0 mi Calm Calm - N/A   Clear
4:55 PM 75.2 °F - 26.6 °F 17% 30.08 in 10.0 mi Calm Calm - N/A   Clear
5:15 PM 75.2 °F - 26.6 °F 17% 30.08 in 10.0 mi Calm Calm - N/A   Clear
5:35 PM 73.4 °F - 26.6 °F 18% 30.08 in 10.0 mi ENE 3.5 mph - N/A   Clear
5:55 PM 69.8 °F - 26.6 °F 20% 30.09 in 10.0 mi ESE 5.8 mph - N/A   Clear
6:15 PM 68.0 °F - 28.4 °F 23% 30.09 in 10.0 mi SE 4.6 mph - N/A   Clear
6:35 PM 62.6 °F - 26.6 °F 26% 30.10 in 10.0 mi SE 3.5 mph - N/A   Clear
6:55 PM 62.6 °F - 28.4 °F 27% 30.10 in 10.0 mi Calm Calm - N/A   Clear
7:15 PM 60.8 °F - 26.6 °F 27% 30.11 in 10.0 mi SE 3.5 mph - N/A   Clear
7:35 PM 59.0 °F - 26.6 °F 29% 30.11 in 10.0 mi ESE 3.5 mph - N/A   Clear
7:55 PM 59.0 °F - 26.6 °F 29% 30.11 in 10.0 mi ESE 3.5 mph - N/A   Clear
8:15 PM 57.2 °F - 26.6 °F 31% 30.11 in 10.0 mi Calm Calm - N/A   Clear
8:35 PM 57.2 °F - 26.6 °F 31% 30.11 in 10.0 mi Calm Calm - N/A   Clear
8:55 PM 55.4 °F - 26.6 °F 33% 30.11 in 10.0 mi Calm Calm - N/A   Clear
9:15 PM 53.6 °F - 26.6 °F 35% 30.12 in 10.0 mi Calm Calm - N/A   Clear
9:35 PM 53.6 °F - 24.8 °F 33% 30.12 in 10.0 mi Calm Calm - N/A   Clear
9:55 PM 51.8 °F - 26.6 °F 38% 30.12 in 10.0 mi Calm Calm - N/A   Clear
10:15 PM 53.6 °F - 26.6 °F 35% 30.12 in 10.0 mi SE 3.5 mph - N/A   Clear
10:35 PM 51.8 °F - 24.8 °F 35% 30.12 in 10.0 mi Calm Calm - N/A   Clear
10:55 PM 53.6 °F - 26.6 °F 35% 30.12 in 10.0 mi Calm Calm - N/A   Clear
11:15 PM 51.8 °F - 24.8 °F 35% 30.12 in 10.0 mi Calm Calm - N/A   Clear
11:35 PM 51.8 °F - 26.6 °F 38% 30.13 in 10.0 mi SW 3.5 mph - N/A   Clear
11:55 PM 53.6 °F - 26.6 °F 35% 30.13 in 10.0 mi SW 3.5 mph - N/A   Clear